Flag for France Weather past 2 weeks in Grenoble, France

Now
57 °F

Passing clouds.


Feels Like: 56 °F
Forecast: 50 / 76 °F
Wind: 6 mph from South

Location: Grenoble / St. Geoirs

Current Time: Oct 2, 2014 at 12:37:40 AM

Latest Report: Oct 2, 2014 at 12:00 AM


Visibility: N/A

Pressure: 30.30 "Hg

Humidity: 88%

Dew point: 54 °F

Location of GrenobleLocation

Historic Weather in Grenoble — Graph

°F

Grenoble temperature yesterday

Maximum temperature yesterday: 72 °F (at 4:30 PM)
Minimum temperature yesterday: 52 °F (at 7:00 AM)
Average temperature yesterday: 62 °F

Past Weeks' High & Low Weather Summary

 TemperatureHumidityPressure
High79 °F (Sep 17, 2:30 PM)100% (Sep 19, 5:30 AM)30.33 "Hg (Sep 19, 5:30 AM)
Low41 °F (Sep 26, 6:00 AM)41% (Sep 27, 6:00 PM)29.86 "Hg (Sep 17, 1:00 PM)
Average60 °F81%30.13 "Hg
* Reported Sep 16 11:00 PM — Oct 1 11:30 PM, Grenoble, Weather by CustomWeather, © 2014

Note: Actual official high and low records may vary slightly from our data, if they occured in-between our weather recording intervals... More about our weather records

Advertising

Grenoble weather history for previous 24 hours

 ConditionsComfort  
Time TempWeatherWind HumidityBarometerVisibility
11:30 PM
Oct 1
59 °FPassing clouds.3 mph82%30.30 "HgN/A
11:00 PM61 °FClear.6 mph83%30.30 "HgN/A
10:30 PM59 °FClear.2 mph82%30.30 "HgN/A
10:00 PM61 °FClear.No wind77%30.30 "HgN/A
9:30 PM59 °FClear.2 mph82%30.30 "HgN/A
9:00 PM61 °FClear.1 mph72%30.30 "HgN/A
8:30 PM63 °FClear.2 mph73%30.30 "HgN/A
8:00 PM64 °FClear.2 mph68%30.30 "HgN/A
7:30 PM66 °FClear.2 mph64%30.27 "HgN/A
7:00 PM68 °FClear.No wind60%30.27 "HgN/A
6:30 PM70 °FClear.2 mph57%30.27 "HgN/A
6:00 PM70 °FClear.7 mph60%30.27 "HgN/A
5:30 PM72 °FClear.7 mph53%30.27 "HgN/A
5:00 PM72 °FPassing clouds.6 mph61%30.27 "HgN/A
4:30 PM72 °FScattered clouds.7 mph61%30.27 "HgN/A
4:00 PM70 °FPassing clouds.8 mph64%30.27 "HgN/A
3:30 PM70 °FClear.10 mph64%30.27 "HgN/A
3:00 PM70 °FClear.9 mph60%30.27 "HgN/A
2:30 PM70 °FPassing clouds.12 mph60%30.30 "HgN/A
2:00 PM70 °FPassing clouds.7 mph69%30.30 "HgN/A
1:30 PM70 °FScattered clouds.6 mph73%30.30 "HgN/A
1:00 PM68 °FPassing clouds.8 mph73%30.33 "HgN/A
12:30 PM68 °FPassing clouds.6 mph73%30.33 "HgN/A
12:00 PM66 °FBroken clouds.3 mph73%30.33 "HgN/A
11:30 AM64 °FBroken clouds.2 mph78%30.33 "HgN/A
11:00 AM64 °FPartly sunny.No wind83%30.33 "HgN/A
10:30 AM61 °FPartly sunny.No wind88%30.33 "HgN/A
10:00 AM61 °FPassing clouds.No wind94%30.33 "Hg6 mi
9:30 AM59 °FClear.No wind94%30.30 "Hg6 mi
9:00 AM57 °FFog.2 mph94%30.30 "Hg4 mi
8:30 AM54 °FFog.No wind94%30.30 "Hg0 mi
8:00 AM54 °FFog.No wind100%30.30 "Hg0 mi
7:30 AM54 °FFog.No wind94%30.30 "Hg3 mi
7:00 AM52 °FFog.No wind94%30.30 "Hg0 mi
6:30 AM54 °FFog.3 mph94%30.30 "Hg0 mi
6:00 AM54 °FLight fog.3 mph94%30.30 "Hg2 mi
5:30 AM54 °FLight fog.3 mph94%30.30 "Hg3 mi
4:30 AM55 °FFog.1 mph94%30.30 "Hg2 mi
4:00 AM55 °FClear.3 mph94%30.30 "Hg4 mi
3:30 AM57 °FFog.3 mph94%30.30 "Hg2 mi
3:00 AM57 °FPartly cloudy.No wind94%30.30 "Hg4 mi
2:30 AM57 °FMostly cloudy.2 mph94%30.30 "Hg4 mi
2:00 AM59 °FClear.2 mph94%30.30 "Hg4 mi
1:30 AM59 °FMostly cloudy.2 mph94%30.30 "HgN/A
1:00 AM59 °FPassing clouds.No wind94%30.30 "Hg4 mi
12:30 AM59 °FMostly cloudy.2 mph94%30.30 "HgN/A
12:00 AM59 °FClear.5 mph94%30.30 "Hg5 mi
Weather by CustomWeather, © 2014

See weather overviewHow to use our weather pages